EN

Hourly Weather La Ermita

Today, 26 July, Monday

Time Temperature Precipitation Wind Pressure Humidity
00:00 +15°C° 0 mm 0 mps 623 mmHg 85%
01:00 +15°C° 0 mm 0 mps 622 mmHg 86%
02:00 +15°C° 0 mm 0 mps 622 mmHg 86%
03:00 +14°C° 0 mm 0 mps 622 mmHg 87%
04:00 +15°C° 0 mm 1 mps 622 mmHg 88%
05:00 +15°C° 0 mm 1 mps 622 mmHg 89%
06:00 +16°C° 0 mm 1 mps 623 mmHg 83%
07:00 +19°C° 0 mm 1 mps 623 mmHg 77%
08:00 +21°C° 0 mm 1 mps 624 mmHg 71%
09:00 +23°C° 0 mm 1 mps 625 mmHg 62%
10:00 +25°C° 0 mm 2 mps 625 mmHg 52%
11:00 +28°C° 0 mm 2 mps 625 mmHg 42%
12:00 +28°C° 0 mm 2 mps 625 mmHg 38%
13:00 +29°C° 0 mm 2 mps 624 mmHg 34%
14:00 +30°C° 0 mm 3 mps 624 mmHg 29%
15:00 +29°C° 0 mm 2 mps 624 mmHg 33%
16:00 +29°C° 0 mm 2 mps 623 mmHg 36%
17:00 +28°C° 0 mm 2 mps 623 mmHg 39%
18:00 +25°C° 0 mm 1 mps 622 mmHg 44%
19:00 +23°C° 0 mm 1 mps 622 mmHg 49%
20:00 +21°C° 0 mm 1 mps 622 mmHg 53%
21:00 +20°C° 0 mm 1 mps 622 mmHg 57%
22:00 +20°C° 0 mm 1 mps 623 mmHg 60%
23:00 +19°C° 0 mm 1 mps 623 mmHg 63%

Tomorrow, 27 July, Tuesday

Time Temperature Precipitation Wind Pressure Humidity
00:00 +19°C° 0 mm 1 mps 623 mmHg 65%
01:00 +18°C° 0 mm 1 mps 622 mmHg 68%
02:00 +16°C° 0 mm 0 mps 622 mmHg 70%
03:00 +15°C° 0 mm 0 mps 622 mmHg 72%
04:00 +15°C° 0 mm 0 mps 622 mmHg 74%
05:00 +15°C° 0 mm 0 mps 622 mmHg 77%
06:00 +16°C° 0 mm 0 mps 623 mmHg 71%
07:00 +20°C° 0 mm 1 mps 624 mmHg 66%
08:00 +22°C° 0 mm 1 mps 625 mmHg 60%
09:00 +24°C° 0 mm 1 mps 625 mmHg 54%
10:00 +26°C° 0 mm 1 mps 625 mmHg 48%
11:00 +28°C° 0 mm 1 mps 626 mmHg 43%
12:00 +29°C° 0 mm 2 mps 625 mmHg 39%
13:00 +30°C° 0 mm 2 mps 625 mmHg 35%
14:00 +30°C° 0 mm 3 mps 624 mmHg 31%
15:00 +29°C° 0 mm 2 mps 624 mmHg 34%
16:00 +29°C° 0 mm 2 mps 623 mmHg 38%
17:00 +28°C° 0 mm 1 mps 623 mmHg 41%
18:00 +25°C° 0 mm 1 mps 622 mmHg 50%
19:00 +23°C° 0 mm 1 mps 622 mmHg 59%
20:00 +20°C° 0 mm 1 mps 622 mmHg 68%
21:00 +19°C° 0 mm 1 mps 622 mmHg 72%
22:00 +17°C° 0 mm 0 mps 623 mmHg 76%
23:00 +16°C° 0 mm 0 mps 623 mmHg 81%

Day after tomorrow, 28 July, Wednesday

Time Temperature Precipitation Wind Pressure Humidity
00:00 +16°C° 0 mm 0 mps 623 mmHg 83%
01:00 +15°C° 0 mm 0 mps 622 mmHg 85%
02:00 +15°C° 0 mm 0 mps 622 mmHg 87%
03:00 +15°C° 0 mm 0 mps 622 mmHg 87%
04:00 +15°C° 0 mm 0 mps 622 mmHg 88%
05:00 +14°C° 0 mm 0 mps 622 mmHg 88%
06:00 +16°C° 0 mm 0 mps 623 mmHg 81%
07:00 +18°C° 0 mm 0 mps 624 mmHg 74%
08:00 +19°C° 0 mm 0 mps 625 mmHg 68%
09:00 +23°C° 0 mm 1 mps 625 mmHg 61%
10:00 +25°C° 0 mm 1 mps 625 mmHg 54%
11:00 +26°C° 0 mm 1 mps 625 mmHg 47%
12:00 +27°C° 0 mm 2 mps 625 mmHg 43%
13:00 +27°C° 0 mm 2 mps 624 mmHg 40%
14:00 +28°C° 0 mm 2 mps 624 mmHg 37%
15:00 +27°C° 0 mm 2 mps 624 mmHg 40%
16:00 +27°C° 0 mm 1 mps 623 mmHg 43%
17:00 +27°C° 0 mm 1 mps 623 mmHg 46%
18:00 +24°C° 0 mm 1 mps 622 mmHg 52%
19:00 +22°C° 0 mm 1 mps 622 mmHg 58%
20:00 +18°C° 0 mm 0 mps 622 mmHg 64%
21:00 +18°C° 0 mm 0 mps 622 mmHg 68%
22:00 +17°C° 0 mm 0 mps 622 mmHg 72%
23:00 +16°C° 0 mm 0 mps 622 mmHg 76%

29 July, Thursday

Time Temperature Precipitation Wind Pressure Humidity
00:00 +16°C° 0 mm 0 mps 622 mmHg 77%
01:00 +15°C° 0 mm 0 mps 622 mmHg 79%
02:00 +16°C° 0 mm 1 mps 621 mmHg 81%
03:00 +16°C° 0 mm 1 mps 621 mmHg 82%
04:00 +15°C° 0 mm 1 mps 622 mmHg 84%
05:00 +15°C° 0 mm 1 mps 622 mmHg 85%
06:00 +18°C° 0 mm 1 mps 623 mmHg 79%
07:00 +20°C° 0 mm 1 mps 623 mmHg 72%
08:00 +21°C° 0 mm 2 mps 624 mmHg 66%
09:00 +24°C° 0.1 mm 2 mps 624 mmHg 59%
10:00 +26°C° 0.1 mm 2 mps 625 mmHg 51%
11:00 +28°C° 0.1 mm 3 mps 625 mmHg 44%
12:00 +28°C° 0 mm 3 mps 624 mmHg 41%
13:00 +29°C° 0 mm 3 mps 624 mmHg 39%
14:00 +29°C° 0 mm 3 mps 624 mmHg 36%
15:00 +26°C° 0.9 mm 3 mps 623 mmHg 52%
16:00 +22°C° 0.9 mm 3 mps 622 mmHg 67%
17:00 +19°C° 0.9 mm 3 mps 622 mmHg 83%
18:00 +19°C° 1.5 mm 2 mps 622 mmHg 86%
19:00 +19°C° 1.5 mm 1 mps 622 mmHg 89%
20:00 +16°C° 1.5 mm 0 mps 622 mmHg 93%
21:00 +16°C° 0 mm 0 mps 622 mmHg 92%
22:00 +18°C° 0 mm 1 mps 623 mmHg 92%
23:00 +18°C° 0 mm 1 mps 623 mmHg 92%

30 July, Friday

Time Temperature Precipitation Wind Pressure Humidity
00:00 +16°C° 0 mm 1 mps 622 mmHg 92%
01:00 +16°C° 0 mm 1 mps 622 mmHg 93%
02:00 +16°C° 0 mm 1 mps 622 mmHg 94%
03:00 +15°C° 0 mm 1 mps 622 mmHg 94%
04:00 +15°C° 0 mm 1 mps 622 mmHg 95%
05:00 +15°C° 0 mm 1 mps 622 mmHg 95%
06:00 +17°C° 0 mm 2 mps 623 mmHg 90%
07:00 +18°C° 0 mm 2 mps 624 mmHg 84%
08:00 +20°C° 0 mm 2 mps 624 mmHg 79%
09:00 +23°C° 0 mm 2 mps 624 mmHg 70%
10:00 +25°C° 0 mm 2 mps 625 mmHg 60%
11:00 +27°C° 0 mm 2 mps 625 mmHg 51%
12:00 +27°C° 0.1 mm 2 mps 624 mmHg 50%
13:00 +27°C° 0.1 mm 2 mps 624 mmHg 50%
14:00 +27°C° 0.1 mm 1 mps 624 mmHg 50%
15:00 +26°C° 0 mm 1 mps 623 mmHg 55%
16:00 +25°C° 0 mm 1 mps 623 mmHg 61%
17:00 +24°C° 0 mm 1 mps 623 mmHg 66%
18:00 +23°C° 0.2 mm 1 mps 623 mmHg 71%
19:00 +22°C° 0.2 mm 1 mps 623 mmHg 75%
20:00 +21°C° 0.2 mm 1 mps 623 mmHg 80%
21:00 +20°C° 0.2 mm 1 mps 623 mmHg 84%
22:00 +19°C° 0.2 mm 1 mps 623 mmHg 87%
23:00 +18°C° 0.2 mm 1 mps 623 mmHg 90%

31 July, Saturday

Time Temperature Precipitation Wind Pressure Humidity
00:00 +18°C° 0 mm 1 mps 623 mmHg 91%
01:00 +18°C° 0 mm 1 mps 623 mmHg 92%
02:00 +16°C° 0 mm 1 mps 623 mmHg 93%
03:00 +16°C° 0 mm 1 mps 623 mmHg 94%
04:00 +16°C° 0 mm 1 mps 623 mmHg 94%
05:00 +15°C° 0 mm 1 mps 623 mmHg 95%
06:00 +18°C° 0 mm 1 mps 624 mmHg 89%
07:00 +19°C° 0 mm 1 mps 625 mmHg 84%
08:00 +21°C° 0 mm 1 mps 625 mmHg 78%
09:00 +23°C° 0 mm 2 mps 626 mmHg 68%
10:00 +25°C° 0 mm 2 mps 626 mmHg 58%
11:00 +27°C° 0 mm 2 mps 626 mmHg 48%
12:00 +27°C° 0.1 mm 2 mps 626 mmHg 50%
13:00 +27°C° 0.1 mm 2 mps 625 mmHg 53%
14:00 +26°C° 0.1 mm 1 mps 624 mmHg 56%
15:00 +26°C° 0 mm 1 mps 624 mmHg 56%
16:00 +26°C° 0 mm 1 mps 624 mmHg 56%
17:00 +26°C° 0 mm 1 mps 623 mmHg 56%
18:00 +24°C° 0.3 mm 1 mps 623 mmHg 66%
19:00 +21°C° 0.3 mm 1 mps 623 mmHg 77%
20:00 +19°C° 0.3 mm 1 mps 623 mmHg 87%
21:00 +19°C° 1 mm 1 mps 623 mmHg 88%
22:00 +18°C° 1 mm 1 mps 624 mmHg 90%
23:00 +18°C° 1 mm 1 mps 624 mmHg 91%
Show more